{"data":{"norad_id":61881,"intl_designator":"2024-204H","name":"STARLINK-11329 [DTC]","alt_names":[],"object_type":"PAYLOAD","status":"ACTIVE","operator":null,"country":"US","launch_date":"2024-11-09","launch_site_code":"AFWTR","launch_vehicle":null,"mission":null,"orbit_class":"UNKNOWN","rcs_meters":null,"size_class":null,"mass_kg":null,"dimensions":null,"purposes":["comms"],"wikipedia_slug":null,"has_3d_model":false,"image_url":null,"decayed_at":null,"tle_current":{"epoch":"2026-05-24T23:01:29.637984Z","epoch_age_seconds":75650,"freshness":"FRESH","line1":"1 61881U 24204H   26144.95937081  .00000244  00000+0  68660-5 0  9995","line2":"2 61881  53.1579 340.2778 0000893  52.4084 307.7015 15.69707540 88890","mean_motion":15.6970754,"eccentricity":8.93e-5,"inclination_deg":53.1579,"raan_deg":340.2778,"arg_perigee_deg":52.4084,"mean_anomaly_deg":307.7015,"bstar":6.866e-6,"rev_number":8889,"period_min":91.736833983737,"perigee_km":359.13209814579,"apogee_km":360.33548186888,"semimajor_km":6737.8707900073,"source":"CELESTRAK","updated_at":"2026-05-25T13:38:19.475938Z"}}}